Home > Weather > Bamenda > Past weeks

Flag for Cameroon Past Weather in Bamenda, Cameroon — Yesterday and Last 2 Weeks

Now
77 °F

Passing clouds.


Feels Like: 78 °F
Forecast: 58 / 78 °F
Wind: No wind

Location: Douala Obs.

Current Time: Jul 1, 2016 at 7:23:28 AM

Latest Report: Jul 1, 2016 at 6:00 AM


Visibility: 5 mi

Pressure: 29.95 "Hg (25.98 "Hg at 1240m altitude)

Humidity: 94%

Dew Point: 75 °F

Location of BamendaLocation

Past Weather in Bamenda — Graph

°F

Bamenda Temperature Yesterday

Maximum temperature yesterday: 86 °F (at 1:00 PM)
Minimum temperature yesterday: 75 °F (at 2:00 AM)
Average temperature yesterday: 79 °F

High & Low Weather Summary for the Past Weeks

 TemperatureHumidityPressure
High88 °F (Jun 17, 1:00 PM)100% (Jun 16, 6:00 AM)30.04 "Hg (Jun 16, 6:00 AM)
Low73 °F (Jun 17, 2:00 AM)59% (Jun 25, 12:00 PM)29.86 "Hg (Jun 17, 4:00 PM)
Average79 °F87%29.94 "Hg
* Reported Jun 16 6:00 AM — Jul 1 6:00 AM, Bamenda, Weather by CustomWeather, © 2016

Note: Actual official high and low records may vary slightly from our data, if they occured in-between our weather recording intervals... More about our weather records

Advertising

Bamenda Weather History for the Previous 24 Hours

Scroll right to see more
 ConditionsComfort  
Time TempWeatherWind HumidityBarometerVisibility
6:00 AM
Fri, Jul 1
77 °FPassing clouds.No wind94%29.95 "Hg5 mi
5:00 AM77 °FPassing clouds.No wind100%29.95 "HgN/A
4:00 AM77 °FPassing clouds.No wind94%29.95 "HgN/A
3:00 AM77 °FLight rain. Passing clouds.No wind94%29.95 "Hg4 mi
2:00 AM77 °FPassing clouds.2 mph100%29.98 "HgN/A
1:00 AM77 °FPassing clouds.No wind100%29.98 "HgN/A
12:00 AM79 °FPassing clouds.No wind94%29.98 "HgN/A
11:00 PM
Thu, Jun 30
77 °FPartly cloudy.No wind94%29.98 "HgN/A
10:00 PM79 °FPassing clouds.2 mph94%29.95 "HgN/A
9:00 PM79 °FPassing clouds.2 mph94%29.95 "HgN/A
8:00 PM81 °FPassing clouds.2 mph84%29.92 "HgN/A
7:00 PM81 °FPassing clouds.3 mph84%29.92 "HgN/A
6:00 PM81 °FScattered clouds.5 mph94%29.89 "HgN/A
5:00 PM84 °FBroken clouds.12 mph74%29.89 "HgN/A
4:00 PM86 °FPartly sunny.5 mph70%29.89 "HgN/A
3:00 PM86 °FBroken clouds.6 mph75%29.92 "HgN/A
2:00 PM84 °FBroken clouds.5 mph79%29.92 "HgN/A
1:00 PM86 °FPartly sunny.7 mph62%29.95 "HgN/A
12:00 PM84 °FPartly sunny.5 mph79%29.98 "HgN/A
11:00 AM81 °FMostly cloudy.3 mph89%30.01 "HgN/A
10:00 AM79 °FMostly cloudy.3 mph94%30.01 "HgN/A
9:00 AM79 °FBroken clouds.2 mph89%30.01 "HgN/A
8:00 AM77 °FScattered clouds.3 mph94%29.98 "Hg4 mi
7:00 AM75 °FFog.1 mph94%29.95 "Hg2 mi
Weather by CustomWeather, © 2016

See weather overviewHow to use our weather pages